05:09
Airports
History
Links
Donate
Help keep this website running!
PayPal
Bitcoin
This page is community maintained. The information is intended for PC simulator navigation or reference.
Always use approved charts for navigation.
ID10
Anderson-Plummer
Anderson-Plummer (ID10)
Potlatch, Idaho, United States (83855)
4
Lat/Lng:46° 55' 27.61" N / 116° 57' 30.6" W
46.924337 / -116.958499
Elevation:2580'ft / 786mMSL
ID / ICAO:ID10
Runways:1
Longest:03-21
Grass 563m / 1,848ft
Nearby Weather04:53 GMT 2017-12-18
Nearby weather at KPUW, Pullman/moscow Rgnl located 14.4 nautical miles from ID10
Altimeter: 29.97
Visibility: 10.0 statute miles
Wind: 15 knots (from 140°)
Temp: 2°c / 36°f
Humidity: 80.5%

METAR: KPUW 180453Z AUTO 14015KT 10SM OVC065 02/M01 A2997 RMK AO2 SLP174 T00171011

(Powered by phpweather)
Nearby VORs <50NM
Nearby NDBs
Runway 03 / 21
Dimensions:563.3 x 15.2m 1848' x 50'ft
Surface:Grass
Runway 03 [A]Runway 21 [B]
Heading:049°TH 229°TH
Lat:
Lng:
46° 55' 21.62"N
116° 57' 40.69"W
46° 55' 33.61"N
116° 57' 20.5"W
User Notes and Comments
46° 55' 27.61" N / 116° 57' 30.6" W
Distance To
Airport ID:
Nearby Airports
(R) Schoepflin 6.2 NM
WN26 WSW 244°
(R) Hill 7.4 NM
WT88 SW 218°
(U) Pullman/moscow Rgnl 14.4 NM
KPUW ( WX ) SSW 209°
(R) Fountains 14.7 NM
ID60 S 187°
(U) Willard Field 21.9 NM
73S N 349°
(U) Port Of Whitman Business Air C 22.0 NM
S94 WSW 258°
4 Lower Granite State 28.7 NM
0WA0 SW 232°
VFR Chart
Flight Planning at SkyVector.com